[[{"header":{"parameterUnit":"m.s-1","parameterCategory":1,"la1":30.2991,"la2":30.254,"lo1":-89.0895,"lo2":-89.0444,"dy":0.0017,"dx":0.0017,"nx":28,"ny":28,"refTime":"2025-06-06T03:00:00:Z","depth":0,"parameterNumber":2,"parameterNumberName":"U-component_of_WINDS"},"data":[0,0,0,0,0,0,0,0,0,0,0,0,0,0,0,0,0,0,0,0,0,0,0,0,0,0,0,0,0,0,0,0,0,0,0,0,0,0,0,0,0,0,0,0,0,0,0,0,0,0,0,0,0,0,0,0,0,0,0.7605,0.7607,0,0.7719,0.7721,0.7722,0.7771,0.7771,0.7771,0.7771,0.7893,0.7896,0.79,0,0,0,0,0,0,0,0,0,0,0,0,0,0.7435,0.7438,0.7605,0.7607,0.7608,0.7719,0.7721,0.7722,0.7771,0.7771,0.7771,0.7771,0.7892,0.7896,0.79,0,0,0,0,0,0,0,0,0,0,0,0,0,0.7525,0.7439,0.7605,0.7646,0.7651,0.7719,0.7721,0.7723,0.7771,0.7771,0.7771,0.777,0.789,0.7895,0.7901,0.7938,0,0,0.7916,0.7919,0,0,0,0,0,0,0,0,0.752,0.7532,0.7638,0.7643,0.7649,0.7731,0.7706,0.7795,0.7771,0.7726,0.7771,0.777,0.784,0.7849,0.7871,0.7944,0.7949,0.7917,0.792,0.7922,0.7924,0,0,0,0,0,0,0,0.7514,0.7527,0.7651,0.764,0.7646,0.766,0.7673,0.7723,0.7783,0.773,0.7733,0.7746,0.7842,0.7866,0.7874,0.7951,0.7917,0.7921,0.7924,0.7926,0.8061,0.8062,0,0,0,0,0,0,0.75,0.7521,0.7647,0.7654,0.7582,0.7663,0.7677,0.7705,0.7783,0.7794,0.7746,0.7748,0.7857,0.7868,0.7879,0.7928,0.7922,0.7927,0.793,0.8061,0.8062,0.8062,0,0,0,0,0,0,0.7496,0.7511,0.7642,0.7589,0.7607,0.7667,0.7697,0.7707,0.7731,0.7795,0.7806,0.7759,0.7857,0.7872,0.7923,0.7933,0.7929,0.7934,0.806,0.8061,0.8062,0.8027,0,0,0,0,0,0,0.7491,0.7509,0.7523,0.7589,0.7609,0.7683,0.7698,0.771,0.7739,0.7742,0.781,0.7821,0.7858,0.7915,0.7928,0.794,0.7938,0.806,0.8061,0.8062,0.8028,0.8027,0.8026,0,0,0,0,0,0.7485,0.751,0.7523,0.7538,0.7627,0.7683,0.7695,0.7736,0.7739,0.7755,0.7796,0.7819,0.793,0.792,0.7935,0.7949,0.8059,0.806,0.8061,0.8028,0.8027,0.8026,0,0,0,0,0,0,0.7446,0.7519,0.7535,0.7581,0.7625,0.7691,0.7712,0.7733,0.7779,0.778,0.7831,0.7846,0.7893,0.7926,0.7914,0.799,0.7997,0.8001,0.7966,0.7965,0.7964,0.7956,0.7942,0,0,0,0,0,0.7442,0.748,0.7543,0.7578,0.7599,0.7651,0.7677,0.7705,0.7753,0.7773,0.7818,0.7865,0.7911,0.794,0.7986,0.8033,0.8049,0.805,0.8049,0.8048,0.8051,0.8079,0.808,0.8066,0.8066,0.8066,0,0,0.7436,0.7481,0.7502,0.7571,0.7608,0.7648,0.7667,0.7708,0.7738,0.778,0.783,0.7865,0.7921,0.7971,0.7995,0.8,0.8059,0.8049,0.8048,0.8052,0.808,0.8082,0.8083,0.8066,0.8066,0.8066,0,0,0.7444,0.7482,0.7515,0.7551,0.7607,0.7642,0.765,0.7712,0.7736,0.7787,0.7819,0.7857,0.7935,0.7973,0.8003,0.8026,0.8049,0.804,0.8035,0.8061,0.8063,0.8064,0.8072,0.8075,0.8043,0.8043,0.8043,0,0.743,0.7489,0.753,0.7568,0.7598,0.7636,0.7671,0.7705,0.7773,0.7794,0.7798,0.7896,0.7937,0.7996,0.8001,0.8024,0.8036,0.8032,0.8059,0.8061,0.8062,0.8071,0.8074,0.8041,0.8041,0.8041,0.8042,0,0.7469,0.7509,0.753,0.7592,0.7625,0.7661,0.7709,0.7738,0.7762,0.7797,0.7849,0.7899,0.7955,0.7971,0.7997,0.8034,0.8036,0.8049,0.8057,0.8061,0.8071,0.8074,0.8039,0.8039,0.804,0.804,0,0,0.7456,0.754,0.7547,0.7576,0.764,0.7673,0.7712,0.7765,0.7789,0.7835,0.7869,0.7933,0.7946,0.798,0.801,0.8033,0.8048,0.8044,0.8046,0.8043,0.8093,0.8083,0.8086,0.8063,0.8064,0.8065,0.8088,0,0.7474,0.7543,0.7581,0.7635,0.7673,0.7709,0.7743,0.7787,0.782,0.7859,0.7897,0.7941,0.7954,0.7975,0.7999,0.8041,0.8059,0.804,0.8098,0.8099,0.8082,0.8091,0.808,0.81,0.8092,0.8093,0.8093,0,0.7503,0.7546,0.7603,0.7663,0.768,0.771,0.7762,0.7798,0.7849,0.7872,0.7909,0.7938,0.7982,0.7986,0.8048,0.8034,0.806,0.8084,0.8086,0.8093,0.8097,0.8099,0.8107,0.811,0.8099,0.8099,0.8098,0,0.7488,0.7561,0.7605,0.7629,0.7699,0.7719,0.775,0.78,0.7829,0.7875,0.7895,0.7946,0.7974,0.8014,0.8057,0.8056,0.8115,0.8122,0.8136,0.8135,0.8147,0.8146,0.816,0.8163,0.8163,0.8163,0.8163,0,0.7504,0.7538,0.7599,0.7626,0.7665,0.7709,0.7747,0.7781,0.7825,0.7861,0.7896,0.7928,0.7983,0.8023,0.8057,0.8103,0.8116,0.8136,0.8145,0.8133,0.8131,0.8152,0.8151,0.8164,0.8164,0.8164,0.8163,0,0.7494,0.7537,0.7587,0.7649,0.7665,0.7691,0.7745,0.7773,0.7808,0.7852,0.7865,0.7921,0.7969,0.8016,0.8082,0.8105,0.8151,0.8162,0.8133,0.8138,0.8149,0.8147,0.8178,0.8184,0.8182,0.8182,0.8182,0,0.7502,0.7528,0.7592,0.7618,0.7647,0.7687,0.7717,0.7762,0.7792,0.7851,0.7872,0.7923,0.7966,0.8043,0.809,0.814,0.8154,0.816,0.8162,0.8149,0.8154,0.8152,0.8155,0.816,0.8159,0.8159,0.8159,0,0.751,0.753,0.757,0.7618,0.7652,0.7693,0.7735,0.7754,0.7807,0.7839,0.7888,0.7921,0.7987,0.8038,0.8093,0.8127,0.8152,0.8158,0.8164,0.8153,0.8135,0.8145,0.8131,0.8158,0.8158,0.8158,0.8158,0.8158,0.751,0.7535,0.7584,0.7628,0.7664,0.7702,0.7731,0.7769,0.781,0.7866,0.7891,0.794,0.7991,0.8068,0.8101,0.8142,0.8148,0.8157,0.8159,0.816,0.8158,0.8127,0.8153,0.8153,0.8153,0.8153,0.8153,0,0.7521,0.7553,0.7594,0.765,0.7685,0.7704,0.7751,0.7779,0.7822,0.7867,0.7908,0.7964,0.8013,0.8064,0.8116,0.8139,0.8152,0.8151,0.815,0.8157,0.815,0.8139,0.814,0.814,0.814,0.814,0.814,0.814,0.753,0.7574,0.7599,0.7661,0.7695,0.7742,0.7767,0.7803,0.7839,0.79,0.794,0.7972,0.8019,0.8075,0.8121,0.8135,0.8152,0.8148,0.8165,0.8157,0.8158,0.8159,0.8149,0.8152,0.8152,0.817,0.817,0.817]},{"header":{"parameterUnit":"m.s-1","parameterCategory":1,"la1":30.2991,"la2":30.254,"lo1":-89.0895,"lo2":-89.0444,"dy":0.0017,"dx":0.0017,"nx":28,"ny":28,"refTime":"2025-06-06T03:00:00:Z","depth":0,"parameterNumber":3,"parameterNumberName":"V-component_of_WINDS"},"data":[0,0,0,0,0,0,0,0,0,0,0,0,0,0,0,0,0,0,0,0,0,0,0,0,0,0,0,0,0,0,0,0,0,0,0,0,0,0,0,0,0,0,0,0,0,0,0,0,0,0,0,0,0,0,0,0,0,0,2.9459,2.9459,0,2.948,2.9481,2.9481,2.9509,2.951,2.951,2.9511,2.953,2.953,2.953,0,0,0,0,0,0,0,0,0,0,0,0,0,2.944,2.944,2.9459,2.9459,2.946,2.948,2.9481,2.9481,2.9509,2.951,2.951,2.9511,2.953,2.953,2.953,0,0,0,0,0,0,0,0,0,0,0,0,0,2.9453,2.944,2.9459,2.9476,2.9478,2.948,2.9481,2.9481,2.9509,2.951,2.9511,2.9511,2.953,2.953,2.953,2.9517,0,0,2.9531,2.9531,0,0,0,0,0,0,0,0,2.9453,2.9454,2.9474,2.9475,2.9477,2.9493,2.9481,2.9493,2.9509,2.9497,2.9511,2.9512,2.9517,2.9518,2.9521,2.9518,2.9519,2.9531,2.9531,2.9531,2.9531,0,0,0,0,0,0,0,2.9452,2.9453,2.9468,2.9474,2.9476,2.9482,2.9485,2.9483,2.9503,2.9498,2.95,2.9503,2.9518,2.9521,2.9521,2.9519,2.9531,2.9531,2.9531,2.9531,2.9504,2.9503,0,0,0,0,0,0,2.9448,2.9452,2.9467,2.9468,2.9466,2.9482,2.9485,2.9487,2.9503,2.9506,2.9502,2.9504,2.952,2.9521,2.9522,2.9506,2.9531,2.9531,2.9531,2.9505,2.9504,2.9503,0,0,0,0,0,0,2.9448,2.945,2.9466,2.9461,2.9463,2.9481,2.9484,2.9487,2.949,2.9506,2.9509,2.9501,2.9521,2.9522,2.9518,2.9507,2.9531,2.9531,2.9505,2.9504,2.9503,2.9474,0,0,0,0,0,0,2.9447,2.9449,2.9445,2.9461,2.9464,2.9462,2.9483,2.9487,2.949,2.9493,2.9506,2.9509,2.9521,2.9517,2.9518,2.9508,2.9531,2.9506,2.9505,2.9504,2.9476,2.9472,2.9469,0,0,0,0,0,2.9447,2.9436,2.9445,2.9446,2.9459,2.9461,2.9463,2.9478,2.9489,2.9484,2.9494,2.9508,2.9508,2.9517,2.9517,2.9507,2.9507,2.9505,2.9504,2.9478,2.9473,2.9469,0,0,0,0,0,0,2.9418,2.9438,2.9448,2.9443,2.945,2.9466,2.9461,2.9473,2.9477,2.9479,2.9498,2.95,2.9493,2.95,2.9509,2.9494,2.951,2.9508,2.949,2.9485,2.9482,2.948,2.9531,0,0,0,0,0,2.9411,2.9413,2.943,2.9423,2.9426,2.9443,2.9444,2.9456,2.9464,2.9467,2.9477,2.9484,2.9485,2.9486,2.9488,2.9477,2.948,2.9471,2.9467,2.9464,2.9462,2.9455,2.9451,2.9497,2.9497,2.9497,0,0,2.9397,2.9408,2.9408,2.9417,2.9425,2.9424,2.9445,2.9444,2.9444,2.9467,2.9463,2.947,2.9479,2.9471,2.9468,2.9476,2.945,2.9462,2.9459,2.9459,2.9453,2.9448,2.9444,2.9496,2.9496,2.9496,0,0,2.9371,2.938,2.9374,2.9381,2.9392,2.9403,2.9401,2.9415,2.9421,2.9418,2.9435,2.9434,2.9437,2.9442,2.9444,2.9418,2.9431,2.9419,2.9399,2.9392,2.9389,2.9385,2.9375,2.9371,2.9417,2.9417,2.9417,0,2.9351,2.9352,2.937,2.9368,2.9371,2.9392,2.9386,2.9391,2.9402,2.9403,2.9412,2.9415,2.9422,2.9415,2.9408,2.9411,2.9408,2.9417,2.9388,2.9385,2.9382,2.9372,2.9368,2.9415,2.9415,2.9416,2.9416,0,2.9327,2.9328,2.9322,2.9332,2.9334,2.933,2.9346,2.9346,2.9357,2.9366,2.9362,2.9371,2.9375,2.9374,2.9385,2.9368,2.9373,2.9385,2.9401,2.9376,2.9367,2.9363,2.9413,2.9413,2.9414,2.9414,0,0,2.9284,2.9303,2.93,2.9304,2.9317,2.9317,2.9313,2.9318,2.9317,2.9323,2.9319,2.932,2.9331,2.9334,2.9346,2.934,2.9317,2.9352,2.9353,2.9344,2.9297,2.9287,2.9282,2.9325,2.9324,2.9324,2.9296,0,2.9259,2.9254,2.9269,2.926,2.9259,2.9279,2.9275,2.9282,2.929,2.929,2.9299,2.9299,2.9315,2.9316,2.9312,2.932,2.9307,2.9323,2.932,2.932,2.9317,2.9278,2.9268,2.9241,2.9292,2.9292,2.9291,0,2.9229,2.9234,2.9225,2.9237,2.9237,2.9234,2.9238,2.9238,2.9246,2.9252,2.9255,2.9268,2.9264,2.928,2.9273,2.9283,2.9283,2.9287,2.9287,2.9286,2.9303,2.9275,2.9233,2.9228,2.9286,2.9287,2.9287,0,2.9196,2.9201,2.9195,2.9198,2.9213,2.9209,2.9215,2.9223,2.9225,2.9228,2.9229,2.9232,2.9233,2.9234,2.9247,2.9258,2.9238,2.9256,2.9242,2.9242,2.9237,2.9237,2.9192,2.9238,2.9238,2.9238,2.9239,0,2.9166,2.916,2.9181,2.9177,2.917,2.9187,2.9178,2.9186,2.9193,2.919,2.9207,2.9204,2.9222,2.922,2.923,2.9222,2.9223,2.9227,2.923,2.9225,2.9224,2.9224,2.9226,2.9237,2.9238,2.9238,2.9238,0,2.9128,2.9143,2.9138,2.9151,2.9155,2.9148,2.916,2.9156,2.9166,2.9162,2.9162,2.9176,2.9175,2.9189,2.919,2.9197,2.9184,2.919,2.9181,2.9183,2.9168,2.9169,2.9121,2.9115,2.9166,2.9166,2.9165,0,2.9108,2.9103,2.9116,2.9116,2.9121,2.912,2.9121,2.9137,2.9138,2.9145,2.9141,2.9141,2.9142,2.914,2.915,2.915,2.9156,2.9139,2.9156,2.9151,2.9154,2.9154,2.9153,2.9136,2.9135,2.9134,2.9134,0,2.9069,2.9076,2.9078,2.9081,2.9082,2.9085,2.909,2.9088,2.9106,2.9105,2.9104,2.9105,2.9107,2.9106,2.9109,2.9114,2.9126,2.9129,2.9125,2.912,2.9114,2.9116,2.917,2.9129,2.913,2.913,2.9131,2.9131,2.9038,2.9034,2.9043,2.9043,2.9048,2.9052,2.9049,2.9058,2.9058,2.906,2.907,2.9067,2.9073,2.9078,2.9082,2.9079,2.9087,2.9083,2.9081,2.908,2.9076,2.9116,2.908,2.908,2.908,2.908,2.908,0,2.8999,2.9006,2.9006,2.9012,2.9012,2.9024,2.9029,2.9028,2.9026,2.9031,2.9032,2.903,2.903,2.9039,2.904,2.9036,2.9041,2.9035,2.9035,2.9035,2.907,2.9072,2.9031,2.9031,2.9031,2.9031,2.9031,2.9031,2.8979,2.8973,2.898,2.8976,2.8982,2.898,2.8981,2.8984,2.8988,2.8986,2.8986,2.8992,2.8999,2.9,2.8999,2.9002,2.9001,2.8992,2.8997,2.9029,2.9033,2.9038,2.904,2.8992,2.8992,2.8962,2.8962,2.8962]}]]